GEFSSE_con_probscp_054.txt.gz
Probability
0 0 0 0 0 0 0 0 0 0 0 0 0 0 0 0 0 0 0 0 0 0 0 0 0 0 0 0 0 0 0 0 0 0 0 0 0 0 0 0 0 0 0
0 0 0 0 0 0 0 0 0 0 0 0 0 0 0 0 0 0 0 0 0 0 0 0 0 0 0 0 0 0 0 0 0 0 0 0 0 0 0 0 0 0 0
0 0 0 0 0 0 0 0 0 0 0 0 0 0 0 0 0 0 0 0 0 0 0 0 0 0 0 0 0 0 0 0 0 0 0 0 0 0 0 0 0 0 0
0 0 0 1 0 0 0 0 0 0 0 0 0 0 0 0 0 0 0 0 0 0 0 0 0 0 0 0 0 0 0 0 0 0 0 0 0 0 0 0 0 0 0
1 1 3 5 4 2 1 0 0 0 0 0 0 0 0 0 0 0 0 0 0 0 0 0 0 0 0 0 0 0 0 0 0 0 0 0 0 0 0 0 0 0 0
2 2 8 14 14 9 5 3 2 1 1 1 0 0 0 0 0 0 0 0 0 0 0 0 0 0 0 0 0 0 0 0 0 0 0 0 0 0 0 0 0 0 0
5 5 14 26 28 22 16 12 8 5 3 2 1 0 0 0 0 0 0 0 0 0 0 0 0 0 0 0 0 0 0 0 0 0 0 0 0 0 0 0 0 0 0
12 15 25 38 42 37 31 25 19 13 7 4 2 1 0 0 0 0 0 0 0 0 0 0 0 0 0 0 0 0 0 0 0 0 0 0 0 0 0 0 0 0 0
21 30 40 46 49 48 42 36 31 22 11 5 3 2 1 0 0 0 0 0 0 0 0 0 0 0 0 0 0 0 0 0 0 0 0 0 0 0 0 0 0 0 0
28 40 50 53 54 51 45 41 37 27 12 5 4 3 2 1 0 0 0 0 0 0 0 0 0 0 0 0 0 0 0 0 0 0 0 0 0 0 0 0 0 0 0
37 45 56 61 60 57 50 42 36 25 12 5 3 2 2 1 0 0 0 0 0 0 0 0 0 0 0 0 0 0 0 0 0 0 0 0 0 0 0 0 0 0 0
44 52 62 66 68 66 59 48 39 29 18 9 4 3 2 1 0 0 0 0 0 0 0 0 0 0 0 0 1 1 1 1 1 0 0 0 0 0 0 1 1 1 2
46 57 66 69 71 68 62 53 46 40 29 17 9 6 5 3 2 1 0 0 0 0 0 0 0 1 2 2 3 3 3 3 2 2 1 1 0 0 0 1 2 3 6
51 59 66 69 68 63 57 50 46 43 35 25 15 11 10 7 4 2 0 0 0 0 0 0 1 2 3 4 5 5 5 4 3 3 3 1 1 0 0 1 2 5 8
59 61 63 64 62 56 50 45 41 38 34 28 21 16 13 11 7 3 1 0 0 0 0 0 1 1 2 3 4 4 4 3 2 3 3 2 1 1 1 2 4 7 9
64 60 57 56 54 48 41 38 37 34 31 28 24 19 16 14 9 5 2 1 0 0 0 1 0 0 0 1 1 2 2 1 1 2 3 2 2 2 3 5 6 7 10
60 53 49 48 44 37 31 30 30 30 29 27 24 21 17 13 10 7 4 2 1 0 0 1 1 1 1 1 0 0 0 0 0 1 1 2 2 2 3 5 6 7 7
48 43 41 39 32 26 23 23 26 27 27 24 20 18 16 13 11 9 6 3 1 1 1 1 2 2 2 1 0 0 0 0 0 0 0 2 2 1 1 3 4 5 6
34 34 32 27 22 19 16 17 19 21 20 16 13 13 15 16 14 10 7 4 3 2 2 2 3 2 1 1 0 0 0 0 0 0 0 1 1 1 0 0 1 3 5
23 24 22 18 16 13 10 9 10 11 9 7 6 8 11 14 14 10 7 4 3 3 3 2 2 1 0 0 0 0 0 0 0 0 0 0 0 0 0 0 1 2 3
15 15 15 13 11 8 6 5 4 4 3 2 2 3 5 6 7 7 5 3 2 2 2 1 0 0 0 0 0 0 0 0 0 0 0 0 0 0 0 0 1 2 2
8 8 8 8 7 5 4 3 3 2 1 1 0 1 1 1 2 3 2 2 2 1 1 0 0 0 0 0 0 0 0 0 0 0 0 0 0 0 0 0 1 1 1
3 3 3 3 3 2 2 1 1 1 0 0 0 0 0 0 0 0 1 2 1 0 0 0 0 0 0 0 0 0 0 0 0 0 0 0 0 0 0 0 0 0 0
1 0 0 1 1 1 0 0 0 0 0 0 0 0 0 0 0 0 0 1 1 0 0 0 0 0 0 0 0 0 0 0 0 0 0 0 0 0 0 0 0 0 0
0 0 0 0 0 0 0 0 0 0 0 0 0 0 0 0 0 0 0 0 0 0 0 0 0 0 0 0 0 0 0 0 0 0 0 0 0 0 0 0 0 0 0
0 0 0 0 0 0 0 0 0 0 0 0 0 0 0 0 0 0 0 0 0 0 0 0 0 0 0 0 0 0 0 0 0 0 0 0 0 0 0 0 0 0 0

GEFSSE_con_probscp_060.txt.gz
Probability
0 0 0 0 0 0 0 0 0 0 0 0 0 0 0 0 0 0 0 0 0 0 0 0 0 0 0 0 0 0 0 0 0 0 0 0 0 0 0 0 0 0 0
0 0 0 0 0 0 0 0 0 0 0 0 0 0 0 0 0 0 0 0 0 0 0 0 0 0 0 0 0 0 0 0 0 0 0 0 0 0 0 0 0 0 0
0 0 0 0 0 0 0 0 0 0 0 0 0 0 0 0 0 0 0 0 0 0 0 0 0 0 0 0 0 0 0 0 0 0 0 0 0 0 0 0 0 0 0
0 0 0 0 0 0 0 0 0 0 0 0 0 0 0 0 0 0 0 0 0 0 0 0 0 0 0 0 0 0 0 0 0 0 0 0 0 0 0 0 0 0 0
0 0 0 0 0 0 0 0 0 0 0 0 0 0 0 0 0 0 0 0 0 0 0 0 0 0 0 0 0 0 0 0 0 0 0 0 0 0 0 0 0 0 0
0 0 0 0 0 0 0 0 0 0 0 0 0 0 0 0 0 0 0 0 0 0 0 0 0 0 0 0 0 0 0 0 0 0 0 0 0 0 0 0 0 0 0
0 1 2 1 0 0 0 0 0 0 0 0 1 1 0 0 0 1 1 0 0 0 0 0 0 0 0 0 0 0 0 0 0 0 0 0 0 0 0 0 0 0 0
0 1 3 3 1 1 0 0 1 2 3 4 5 5 3 1 0 1 1 0 0 0 0 0 0 0 0 0 0 0 0 0 0 0 0 0 0 0 0 0 0 0 0
0 1 2 3 3 2 1 1 4 8 10 12 15 14 10 5 2 1 1 0 0 0 0 0 0 0 0 0 0 0 0 0 0 0 0 0 0 0 0 0 0 0 0
0 0 1 2 3 3 2 3 8 14 17 20 23 23 19 12 5 3 3 2 2 0 0 0 0 0 0 0 0 0 0 0 0 0 0 2 3 2 0 0 0 0 0
6 4 4 5 7 6 7 9 14 20 24 27 29 31 28 19 12 10 10 10 7 2 1 1 1 0 0 0 0 0 0 0 0 0 3 8 8 4 1 0 0 0 0
26 19 15 19 22 20 19 24 27 32 39 41 42 46 43 35 29 25 25 23 14 5 3 2 2 1 0 1 2 2 1 0 0 0 9 20 17 6 1 0 0 0 0
50 41 35 40 45 43 40 41 43 49 56 59 60 63 63 60 54 48 43 38 27 18 12 9 7 3 1 1 4 5 2 1 0 1 15 31 24 8 2 0 0 0 1
62 55 51 57 65 66 60 54 53 58 64 67 69 73 74 75 74 69 63 55 46 38 29 22 16 8 3 2 3 3 2 1 1 4 20 34 27 11 3 1 0 1 3
62 60 61 68 75 77 73 63 58 59 62 65 69 72 73 76 80 78 74 68 60 51 42 32 21 13 9 5 2 1 1 1 2 6 17 27 23 11 4 1 1 2 4
63 65 69 73 75 77 74 66 59 57 57 58 62 65 65 70 75 76 74 71 65 56 47 35 24 17 13 9 5 3 2 2 2 4 8 14 14 10 5 2 2 3 5
68 71 73 70 69 71 69 63 57 52 48 49 52 53 56 62 68 70 70 68 65 59 50 39 30 23 16 11 8 6 5 4 3 2 3 6 8 7 5 4 4 4 5
68 72 70 63 62 63 60 56 50 43 39 40 41 43 47 54 60 63 62 59 59 58 50 40 34 29 20 14 11 9 8 8 5 3 3 4 6 7 7 6 5 3 3
59 63 62 57 57 55 48 42 38 34 31 31 33 36 39 44 49 51 49 47 49 50 46 38 34 31 23 16 12 9 8 6 4 3 3 3 4 6 8 8 5 3 2
48 50 50 49 48 44 36 29 25 22 21 23 26 28 29 31 33 34 35 35 37 40 39 35 32 28 23 16 9 6 4 2 1 1 2 3 3 5 6 7 7 5 4
36 35 34 34 32 29 26 22 18 14 13 17 20 19 18 18 18 19 20 22 26 31 33 31 28 24 20 14 6 2 1 0 0 0 1 2 2 2 3 4 7 8 8
22 20 19 19 17 16 17 15 12 10 11 14 15 13 11 10 10 11 11 12 18 25 28 27 25 21 15 9 5 2 0 0 0 0 0 1 1 1 1 2 4 6 7
9 10 9 9 9 8 8 8 6 6 8 11 12 10 7 6 7 7 8 10 16 22 24 23 23 20 14 8 4 2 0 0 0 0 0 0 0 0 0 0 1 2 2
4 4 5 5 6 5 4 4 3 3 4 6 7 6 3 3 3 5 6 10 15 18 19 21 21 22 18 12 6 2 0 0 0 0 0 0 0 0 0 0 0 0 0
2 2 3 4 3 2 2 3 3 1 1 1 2 2 1 0 1 2 4 7 10 11 14 18 21 23 25 21 13 8 4 2 1 1 0 0 0 0 0 0 0 0 0
1 1 2 3 2 1 1 2 2 1 0 0 0 0 0 0 0 1 3 5 6 7 10 16 19 24 29 28 21 14 8 4 2 2 1 0 0 0 0 0 0 0 0

GEFSSE_con_probscp_066.txt.gz
Probability
18 12 7 4 1 0 0 0 0 0 0 0 0 0 0 0 0 0 0 0 0 0 0 0 0 0 0 0 0 0 0 0 0 0 0 0 0 0 0 0 0 0 0
22 13 7 4 1 0 0 0 0 0 0 0 0 0 0 0 0 0 0 0 0 0 0 0 0 0 0 0 0 0 0 0 0 0 0 0 0 0 0 0 0 0 0
21 11 5 3 1 0 0 0 0 0 0 0 0 0 0 0 0 0 0 0 0 0 0 0 0 0 0 0 0 0 0 0 0 0 0 0 0 0 0 0 0 0 0
14 8 3 3 2 1 1 0 0 0 0 0 0 0 0 0 0 0 0 0 0 0 0 0 0 0 0 0 0 0 0 0 0 0 0 0 0 0 0 0 0 0 0
10 5 2 3 3 2 1 0 0 0 0 1 1 0 0 0 0 0 0 0 0 0 0 0 0 0 0 0 0 0 0 0 0 0 0 0 0 0 0 0 0 0 0
10 6 3 4 5 3 1 0 1 1 1 2 2 1 1 1 1 1 1 0 0 0 0 0 0 0 0 0 0 0 0 0 0 0 0 0 0 0 0 0 0 0 0
19 14 9 9 9 6 2 1 2 2 2 2 3 3 2 2 3 3 3 1 0 0 0 0 0 0 0 0 0 0 0 0 0 0 0 0 0 0 0 0 0 0 0
35 27 18 15 14 9 5 3 2 3 3 3 4 4 3 4 4 4 5 4 1 0 1 1 0 0 0 0 0 0 0 0 0 0 0 1 2 1 0 0 0 0 0
50 41 27 21 18 12 8 6 4 4 3 4 4 4 5 6 6 7 11 11 9 6 5 4 2 1 1 0 0 0 0 0 0 0 1 7 12 9 3 1 0 0 0
59 52 37 26 23 15 10 9 8 6 5 5 5 7 9 9 10 14 20 25 25 20 16 11 8 6 5 2 0 0 0 0 0 0 2 16 32 29 14 5 1 0 0
61 58 45 37 31 18 16 20 17 12 12 12 12 17 17 14 14 21 34 48 49 41 33 27 21 18 13 7 3 3 1 0 0 0 6 30 54 52 31 14 4 1 0
55 54 53 55 47 29 31 40 30 24 30 28 27 34 33 22 18 28 53 72 73 63 54 48 41 32 22 12 12 14 8 2 0 0 13 47 72 68 48 26 12 5 1
45 43 55 72 67 49 52 56 44 42 55 54 49 57 56 44 36 45 70 88 87 79 70 63 57 45 28 19 24 29 19 6 2 1 21 59 82 78 59 37 21 11 5
48 44 58 81 84 72 69 69 60 60 72 77 75 78 79 74 66 69 81 90 90 85 76 68 64 54 39 30 34 36 26 14 6 5 26 60 81 79 63 41 25 16 11
68 63 69 86 91 85 82 81 77 78 83 88 90 92 92 92 88 85 86 88 88 85 78 72 68 65 58 49 41 37 31 22 14 14 30 54 69 70 60 42 27 19 14
85 82 82 86 90 91 90 88 88 87 88 90 93 94 95 94 93 90 86 85 85 83 79 75 72 73 71 61 46 36 34 29 25 26 36 49 58 59 54 45 34 23 15
92 91 88 87 89 92 92 90 89 87 87 89 91 91 88 86 87 85 82 80 80 77 75 73 73 73 68 59 45 33 32 35 35 35 38 46 49 46 44 44 41 32 21
95 94 90 88 90 91 91 89 85 84 86 87 86 82 76 73 73 73 72 74 75 72 67 65 65 61 56 49 39 30 32 37 38 33 34 38 38 35 33 35 39 34 26
91 92 90 89 88 88 85 82 79 80 83 83 78 72 65 61 60 61 64 68 69 64 57 52 50 47 45 40 31 27 31 34 32 26 25 27 28 28 26 26 29 25 19
80 83 83 82 81 80 76 74 74 75 75 73 70 63 57 54 52 52 55 58 56 49 44 39 34 33 36 34 26 21 23 24 23 22 20 20 20 20 19 24 27 21 13
58 62 63 65 68 69 68 67 68 68 64 61 58 51 45 43 42 40 41 42 40 36 33 30 26 26 26 26 21 17 14 13 14 16 17 16 13 12 16 26 33 26 16
32 36 42 48 53 56 58 56 55 56 53 49 45 41 34 29 27 26 28 28 28 29 27 24 24 22 18 16 14 11 8 7 7 9 12 13 9 10 16 25 32 29 21
15 21 31 39 42 44 45 45 43 44 43 40 37 34 27 20 16 16 17 19 22 24 24 23 24 21 14 12 10 7 4 4 6 7 8 8 8 11 13 16 23 25 21
9 16 27 35 38 39 40 40 39 37 36 34 32 29 24 17 12 11 12 14 17 19 20 22 24 23 18 14 11 7 5 6 8 9 6 5 7 11 9 8 13 18 18
10 15 27 39 43 44 44 42 39 38 35 32 29 24 19 14 11 10 10 11 12 12 13 16 19 21 21 17 14 14 12 13 13 10 6 4 4 6 6 5 7 12 16
12 16 28 44 51 51 49 45 41 42 39 32 27 21 15 12 10 10 9 9 9 8 8 10 12 15 18 17 17 19 20 19 16 11 6 3 2 2 4 6 6 9 13

GEFSSE_con_probscp_072.txt.gz
Probability
0 2 7 8 6 4 2 1 0 0 0 0 0 0 0 0 0 0 0 0 0 0 0 0 0 0 0 0 0 0 0 0 0 0 0 0 0 0 0 0 0 0 0
1 2 6 7 5 3 2 1 0 0 0 0 0 0 0 0 0 0 0 0 0 0 0 0 0 0 0 0 0 0 0 0 0 0 0 0 0 0 0 0 0 0 0
2 2 5 6 5 5 4 2 0 0 0 0 0 0 0 0 0 0 0 0 0 0 0 0 0 0 0 0 0 0 0 0 0 0 0 0 0 0 0 0 0 0 0
3 3 4 5 6 8 7 4 2 1 0 0 0 0 0 0 0 0 0 0 0 0 0 0 0 0 0 0 0 0 0 0 0 0 0 0 0 0 0 0 0 0 0
2 2 3 6 10 10 9 6 3 2 0 0 0 0 0 0 0 0 0 0 0 0 0 0 0 0 0 0 0 0 0 0 0 0 0 0 0 0 0 0 0 0 0
1 1 4 10 15 16 12 7 4 2 0 0 0 0 0 0 0 0 0 0 0 0 0 0 0 0 0 0 0 0 0 0 0 0 0 0 0 0 0 0 0 0 0
0 1 6 14 21 22 19 11 5 2 1 1 0 0 0 0 0 0 0 0 0 0 0 0 0 0 0 0 0 0 0 0 0 0 0 0 0 0 0 0 0 0 0
2 3 7 14 21 25 23 16 9 5 4 3 2 1 0 0 0 1 1 1 0 0 0 0 0 0 0 0 0 0 0 0 0 0 0 0 0 0 0 0 0 0 0
5 5 6 10 16 21 22 18 13 10 8 7 6 4 1 0 1 3 4 2 0 0 0 0 0 0 0 0 0 0 0 0 0 0 0 0 0 0 0 0 1 1 0
8 7 7 8 10 13 15 15 14 12 10 9 7 5 2 1 2 4 7 5 3 3 3 4 4 3 2 1 0 0 0 0 0 0 0 0 0 1 1 1 2 2 1
13 10 8 8 8 8 10 12 12 11 10 8 6 5 4 2 1 3 6 9 10 10 11 12 13 12 10 5 2 0 0 0 0 0 0 0 2 4 5 5 4 3 3
17 11 7 6 7 7 9 11 10 8 9 8 6 6 5 3 1 2 4 10 17 21 24 26 27 26 22 16 9 3 1 0 0 0 0 1 5 10 15 16 11 5 4
22 17 9 6 6 6 10 12 10 7 9 11 9 9 9 7 4 3 5 12 24 35 40 42 44 43 37 28 19 9 4 2 2 1 0 3 9 18 27 31 25 15 10
36 30 23 20 19 18 21 23 18 14 16 19 18 18 20 18 12 9 10 17 32 45 52 53 54 52 46 36 25 16 10 7 5 3 2 4 11 23 36 42 38 28 22
51 49 48 47 46 45 44 42 37 32 30 30 30 32 36 33 24 20 20 25 34 45 52 53 52 50 46 39 30 21 15 12 9 6 4 5 11 23 37 43 40 33 28
64 64 65 65 64 61 58 56 52 48 44 39 36 40 46 44 36 33 31 30 30 36 43 45 42 40 40 37 31 23 17 15 13 10 8 7 9 18 30 37 36 31 26
66 67 67 65 61 56 53 53 50 46 43 39 36 37 41 42 39 37 34 29 26 27 31 32 31 30 30 29 25 21 18 16 15 12 10 8 8 13 22 27 31 29 23
55 57 58 56 50 44 42 43 40 36 32 30 28 26 28 31 33 32 28 22 19 20 20 19 19 21 22 20 19 17 16 16 13 9 8 7 7 10 15 20 23 23 19
42 44 45 44 39 35 33 33 31 27 22 18 16 15 17 22 26 25 19 13 11 12 11 10 11 13 14 15 14 13 12 12 9 5 4 4 4 6 10 13 14 14 12
30 32 32 31 29 27 26 25 23 20 15 11 10 11 12 15 17 16 11 6 4 4 5 5 6 6 7 9 9 8 7 6 5 2 1 2 2 3 6 8 8 7 6
21 22 22 20 19 19 18 16 14 12 10 9 9 9 10 11 11 9 6 3 1 0 1 2 2 2 2 3 3 3 2 2 2 1 0 1 1 2 5 7 6 5 4
14 13 12 11 10 9 8 7 6 6 6 7 7 7 7 8 7 6 3 2 0 0 0 0 1 1 0 0 0 0 0 0 0 0 0 0 0 2 4 6 6 4 3
6 6 5 5 4 4 3 3 4 4 5 5 5 4 4 5 5 4 3 2 1 0 0 0 0 0 0 0 0 0 0 0 0 0 0 0 0 1 3 4 4 3 3
1 1 2 3 3 3 3 4 5 5 4 3 2 2 3 3 4 4 3 3 2 1 0 0 0 0 0 0 0 0 0 0 0 0 0 0 0 1 2 3 3 2 3
0 1 2 3 4 4 6 7 7 4 2 1 1 1 1 2 3 3 2 2 2 1 0 0 0 0 0 0 0 0 0 0 0 0 0 0 0 0 1 1 2 2 3
0 1 2 3 4 5 8 9 7 4 1 0 0 0 0 1 1 1 1 1 1 1 0 0 0 0 0 0 0 0 0 0 0 0 0 0 0 0 0 0 1 2 3

GEFSSE_con_probscp_078.txt.gz
Probability
1 1 1 0 0 2 4 8 12 18 22 22 19 16 11 5 2 1 0 0 0 0 0 0 0 0 0 0 0 0 0 0 0 0 0 0 0 0 0 0 0 0 0
2 2 2 1 1 3 4 5 7 10 13 13 11 9 6 3 1 0 0 0 0 0 0 0 0 0 0 0 0 0 0 0 0 0 0 0 0 0 0 0 0 0 0
3 3 2 1 2 4 4 2 2 3 4 4 3 3 2 0 0 0 0 0 0 0 0 0 0 0 0 0 0 0 0 0 0 0 0 0 0 0 0 0 0 0 0
4 3 3 2 3 4 4 2 1 0 1 1 1 1 0 0 0 0 0 0 0 0 0 0 0 0 0 0 0 0 0 0 0 0 0 0 0 0 0 0 0 0 0
5 4 4 4 4 4 4 3 1 0 0 0 0 0 0 0 0 0 0 0 0 0 0 0 0 0 0 0 0 0 0 0 0 0 0 0 0 0 0 0 0 0 0
5 5 5 6 6 6 6 4 1 0 0 0 0 0 0 0 0 0 0 0 0 0 0 0 0 0 0 0 0 0 0 0 0 0 0 0 0 0 0 0 0 0 0
6 5 6 7 9 10 10 8 5 3 2 1 1 0 0 0 0 0 0 0 0 0 0 1 0 0 0 0 0 0 0 0 0 0 0 0 0 0 0 0 0 0 0
7 6 6 9 11 13 15 13 10 8 6 4 3 1 0 0 0 0 0 1 0 0 0 0 0 0 0 0 0 0 0 0 0 0 0 0 0 0 0 0 0 0 0
10 8 8 9 11 15 17 15 13 12 9 8 5 2 0 0 0 0 0 0 0 0 0 0 0 0 0 0 0 0 0 0 0 0 0 0 0 0 0 0 0 0 0
13 12 11 11 11 13 16 16 16 14 11 9 7 3 0 0 0 0 0 0 0 0 0 0 0 0 0 0 0 0 0 0 0 0 0 0 0 0 0 0 0 0 0
14 13 15 16 14 15 16 18 20 18 15 11 7 4 2 1 0 0 0 0 0 0 0 0 0 1 1 1 1 1 1 1 0 0 0 0 0 0 0 0 0 0 0
15 15 16 17 17 19 20 20 21 22 21 16 10 7 7 5 3 3 2 1 0 0 0 1 3 6 8 8 6 4 5 4 2 1 0 0 0 0 0 0 0 0 0
19 17 14 14 17 20 21 20 20 23 24 21 15 13 14 13 10 9 7 5 3 4 5 9 12 15 18 18 13 8 7 6 4 2 1 1 1 0 0 0 0 0 0
22 19 15 14 17 19 20 21 21 22 22 21 19 19 21 21 18 17 16 12 10 11 14 17 21 23 24 25 21 13 8 5 4 3 3 3 3 2 1 0 0 1 1
24 21 16 14 16 18 20 21 22 21 20 20 19 21 25 25 25 25 23 19 15 15 17 19 22 25 27 28 24 18 13 9 5 5 5 6 6 5 3 1 1 3 3
27 25 19 15 15 16 18 20 19 16 16 18 18 18 22 25 27 28 27 21 15 14 15 16 18 23 26 28 28 25 21 17 12 9 9 11 10 8 6 3 4 5 6
27 24 20 16 13 12 14 15 14 10 10 13 14 13 15 20 23 24 23 17 12 10 12 13 12 15 19 24 28 28 25 21 17 13 13 14 13 11 8 5 5 8 9
20 18 16 14 12 10 10 10 9 6 6 8 9 8 10 14 16 16 14 10 7 7 8 8 7 8 12 15 20 22 22 20 17 14 12 12 13 12 11 9 7 10 11
14 14 14 13 12 11 9 7 5 4 5 5 4 4 5 7 8 8 6 4 3 4 5 4 4 5 6 7 8 11 13 15 14 12 9 9 11 12 12 11 10 12 13
11 11 12 13 12 11 10 7 4 4 4 3 2 2 3 3 3 3 2 2 2 2 2 2 2 3 2 2 2 3 4 6 8 9 8 8 10 10 9 9 11 14 16
7 8 9 9 9 8 7 5 3 2 2 2 2 2 2 2 2 1 1 0 1 2 1 1 1 1 1 0 0 0 0 1 2 4 5 6 7 6 5 5 8 14 18
4 5 5 4 3 3 2 1 1 1 1 1 1 1 1 2 2 2 1 0 1 1 0 0 0 0 0 0 0 0 0 0 0 1 1 2 3 3 2 3 6 12 17
2 2 2 1 0 0 0 0 0 0 0 0 0 0 0 1 1 2 1 0 0 0 0 0 0 0 0 0 0 0 0 0 0 0 0 0 1 1 1 3 4 9 14
1 1 1 0 0 0 0 0 0 0 0 0 0 0 0 0 0 1 1 0 0 0 0 0 0 0 0 0 0 0 0 0 0 0 0 0 0 0 0 1 3 8 12
0 0 0 0 0 0 0 0 1 1 0 0 0 0 0 0 0 0 0 0 0 0 0 0 0 0 0 0 0 0 0 0 0 0 0 0 0 0 0 0 2 6 11
0 0 0 0 0 0 0 1 2 2 1 0 0 0 0 0 0 0 0 0 0 0 0 0 0 0 0 0 0 0 0 0 0 0 0 0 0 0 0 1 2 5 9

GEFSSE_con_probscp_084.txt.gz
Probability
0 0 0 0 0 0 0 0 0 0 0 0 0 0 0 0 0 0 0 0 0 0 0 0 0 0 0 0 0 0 0 0 0 0 0 0 0 0 0 0 0 0 0
0 0 0 0 0 0 0 0 0 0 0 0 0 0 0 0 0 0 0 0 0 0 0 0 0 0 0 0 0 0 0 0 0 0 0 0 0 0 0 0 0 0 0
0 0 0 0 0 0 0 0 1 1 0 0 0 0 0 0 0 0 0 0 0 0 0 0 0 0 0 0 0 0 0 0 0 0 0 0 0 0 0 0 0 0 0
0 0 0 0 0 1 1 2 3 4 3 1 0 0 0 0 0 0 0 0 0 0 0 0 0 0 0 0 0 0 0 0 0 0 0 0 0 0 0 0 0 0 0
0 0 0 0 1 2 3 4 7 9 8 5 3 2 1 0 0 0 0 0 0 0 0 0 0 0 0 0 0 0 0 0 0 0 0 0 0 0 0 0 0 0 0
0 0 0 1 2 2 3 5 8 10 10 8 7 6 3 1 0 0 0 0 0 0 0 0 0 0 0 0 0 0 0 0 0 0 0 0 0 0 0 0 0 0 0
0 0 1 1 2 2 2 3 6 8 8 7 7 7 4 1 0 0 0 0 0 0 0 0 0 0 0 0 0 0 0 0 0 0 0 0 0 0 0 0 0 0 0
0 0 1 2 1 1 2 2 3 4 4 5 5 4 2 1 0 0 0 0 0 0 0 0 0 0 0 0 0 0 0 0 0 0 0 0 0 0 0 0 0 0 0
0 0 1 1 1 1 1 1 1 1 2 3 3 3 1 0 0 0 0 0 0 0 0 0 0 0 0 0 0 0 0 0 0 0 0 0 0 0 0 0 0 0 0
1 1 1 1 1 0 1 3 3 2 2 2 3 3 1 0 0 1 1 1 0 0 0 0 0 0 0 0 0 0 0 0 0 0 0 0 0 0 0 0 0 0 0
4 3 3 2 2 2 3 5 5 4 4 5 6 6 4 3 3 4 4 3 2 1 1 1 1 0 0 0 0 0 0 0 0 0 2 4 2 0 0 0 0 0 0
8 7 6 6 6 5 5 7 7 7 8 8 8 10 10 10 10 10 11 10 8 7 6 6 5 3 2 3 3 2 1 0 0 0 6 13 8 1 0 0 0 0 0
11 11 9 9 9 8 8 9 9 12 14 12 11 14 18 19 19 20 21 21 19 19 19 18 15 10 7 8 8 5 1 0 0 1 11 20 14 2 0 0 0 0 1
15 14 12 11 12 13 14 13 13 15 17 18 18 20 23 24 25 28 30 30 31 32 31 29 25 20 16 14 11 7 4 2 1 4 16 25 17 5 1 0 0 1 2
19 18 16 15 16 19 22 20 18 19 20 21 24 25 23 23 26 30 34 36 37 37 34 33 31 26 24 20 14 12 10 7 6 9 18 24 18 9 4 1 1 2 3
26 26 24 20 18 21 25 25 23 22 22 21 23 23 19 18 23 27 29 33 35 34 33 32 29 26 26 23 17 15 14 14 15 16 20 23 20 13 9 6 5 7 8
36 36 32 24 20 21 24 25 24 21 20 19 18 16 12 12 17 21 22 24 27 27 28 28 26 23 24 22 18 14 15 17 20 21 24 27 24 18 15 13 14 18 20
43 42 35 27 22 21 22 22 20 16 15 14 12 10 8 9 13 16 17 17 17 17 18 21 21 19 18 18 16 13 14 17 18 18 21 24 26 24 21 22 26 30 31
40 37 32 27 22 19 17 15 14 12 9 7 7 7 7 7 9 11 12 10 9 9 9 11 13 13 13 12 11 10 11 11 11 10 12 16 21 25 25 27 33 35 34
27 26 25 22 18 14 13 12 11 9 6 4 4 5 5 4 4 5 4 4 4 5 5 5 6 8 8 8 6 5 5 5 5 4 6 11 16 20 23 28 35 36 35
16 17 17 16 14 11 12 13 12 10 8 7 5 4 4 3 3 2 3 4 6 6 6 5 5 5 5 5 3 2 2 2 2 2 5 10 13 16 19 25 33 38 39
10 11 12 12 11 10 11 15 16 14 12 9 7 7 7 7 7 6 7 9 11 10 8 7 6 4 2 1 1 1 1 1 0 1 4 8 12 16 18 19 25 33 36
6 7 9 10 9 9 10 13 16 16 13 10 10 12 12 11 10 10 10 11 11 9 7 6 5 3 1 0 1 1 1 1 1 1 3 7 11 15 16 14 17 23 27
3 5 9 12 11 10 10 11 13 13 11 10 12 14 14 11 9 9 9 10 9 6 4 4 3 2 1 1 2 2 3 3 2 1 1 3 6 10 14 14 15 20 24
1 3 9 14 15 13 12 12 12 11 10 10 12 13 12 9 8 9 8 8 7 4 3 4 4 3 2 3 3 3 4 4 3 2 1 1 2 5 10 12 15 20 23
0 1 7 14 18 17 14 13 13 12 10 11 12 11 9 8 8 8 7 7 6 4 3 4 5 4 3 3 3 3 4 4 3 1 0 0 1 2 5 9 12 18 21

GEFSSE_con_probscp_090.txt.gz
Probability
5 3 1 0 0 0 0 0 0 0 0 0 0 0 0 0 0 0 0 0 0 0 0 0 0 0 0 0 0 0 0 0 0 0 0 0 0 0 0 0 0 0 0
7 4 1 0 0 0 0 0 0 0 0 0 0 0 0 0 0 0 0 0 0 0 0 0 0 0 0 0 0 0 0 0 0 0 0 0 0 0 0 0 0 0 0
7 3 0 0 0 0 0 0 0 0 0 0 0 0 0 0 0 0 0 0 0 0 0 0 0 0 0 0 0 0 0 0 0 0 0 0 0 0 0 0 0 0 0
4 2 0 0 1 1 1 0 0 0 0 0 0 0 0 0 0 0 0 0 0 0 0 0 0 0 0 0 0 0 0 0 0 0 0 0 0 0 0 0 0 0 0
4 3 2 2 2 2 2 1 0 1 1 1 0 0 0 0 0 0 0 0 0 0 0 0 0 0 0 0 0 0 0 0 0 0 0 0 0 0 0 0 0 0 0
4 4 4 5 5 4 3 1 1 2 3 3 2 1 1 1 1 0 0 0 0 0 0 0 0 0 0 0 0 0 0 0 0 0 0 0 0 0 0 0 0 0 0
5 6 7 8 7 5 3 3 3 4 4 4 3 2 2 2 1 0 0 0 0 0 0 0 0 0 0 0 0 0 0 0 0 0 0 0 0 0 0 0 0 0 0
8 7 8 9 8 5 4 4 5 6 6 4 3 3 2 1 1 1 1 1 1 0 0 0 0 0 0 0 0 0 0 0 0 0 0 0 0 0 0 0 0 0 0
12 9 6 6 7 6 5 4 4 6 6 4 3 1 1 1 1 2 2 2 1 0 0 0 0 0 0 0 0 0 0 0 0 0 1 2 1 0 0 0 0 0 0
15 11 6 5 6 5 5 4 5 5 5 3 3 2 1 1 2 2 3 3 3 2 1 1 1 1 1 0 0 0 0 0 0 0 4 9 9 5 1 0 0 0 0
19 16 13 12 8 5 7 8 7 5 5 6 7 8 6 5 5 8 11 12 9 4 2 2 2 2 2 1 1 1 0 0 0 3 13 24 25 15 6 2 1 0 0
25 24 26 25 17 10 13 16 11 10 13 14 17 18 16 14 14 18 24 24 17 9 5 5 5 4 3 4 6 5 3 1 0 6 25 42 41 29 16 7 3 2 1
30 32 39 42 34 26 26 24 19 19 24 26 29 32 29 26 25 29 33 32 25 17 13 15 14 10 7 9 12 11 7 3 2 9 32 51 50 39 28 18 11 7 6
39 42 50 54 49 44 41 35 31 32 35 36 41 43 39 35 34 35 37 36 34 30 27 27 23 16 13 13 13 12 8 5 4 11 30 48 50 45 37 28 22 16 14
49 53 58 60 57 53 50 46 43 43 42 43 45 45 40 38 37 37 37 37 36 35 33 28 22 18 17 15 12 11 12 10 9 14 28 44 50 48 42 37 33 28 23
54 57 59 59 55 51 48 47 44 42 42 42 42 40 37 36 35 33 32 31 31 29 28 23 17 14 15 15 13 13 15 15 15 18 28 44 52 51 48 46 45 43 38
54 55 54 50 47 44 40 37 31 30 32 34 33 30 28 29 28 26 24 22 22 21 22 19 15 13 14 13 13 12 14 15 18 24 34 46 50 49 48 49 52 55 53
55 53 47 42 40 37 30 23 18 19 22 24 23 21 19 18 18 17 17 15 15 16 17 16 15 17 17 14 11 10 11 14 18 25 35 42 44 43 43 45 50 55 57
51 48 42 36 33 29 22 14 10 12 14 16 16 16 14 11 10 12 15 14 12 12 15 15 17 18 18 14 9 8 10 13 15 18 25 32 36 39 39 41 46 50 50
39 38 33 27 24 21 17 12 10 11 11 11 13 15 14 9 8 11 16 17 13 12 14 16 15 15 14 12 7 6 7 9 9 12 17 21 25 31 35 40 47 49 48
29 27 23 19 17 19 18 16 14 14 12 11 15 18 18 13 10 13 17 20 18 17 18 17 15 12 11 10 8 5 4 4 5 9 13 15 15 20 26 35 45 50 49
23 21 19 19 20 22 22 18 14 13 12 14 21 27 25 19 15 15 20 22 23 23 21 19 15 10 6 7 7 5 2 2 2 5 9 11 11 15 21 26 35 44 47
16 19 24 31 31 27 23 16 11 11 14 19 28 34 30 24 22 21 23 25 26 23 19 16 12 7 3 3 4 4 2 1 1 2 4 6 9 14 17 18 22 31 37
13 22 36 45 43 33 24 17 13 13 17 23 32 37 34 29 26 25 26 27 25 20 13 9 8 6 3 1 2 2 1 0 0 1 1 2 5 11 15 15 15 20 26
17 26 40 50 48 36 25 18 17 17 18 20 26 32 31 28 26 26 28 29 24 17 9 6 5 5 4 2 0 1 1 0 0 0 0 0 2 6 10 11 13 16 20
22 27 39 48 47 37 25 17 16 17 15 15 18 22 23 23 25 26 29 29 23 16 9 5 5 5 4 2 1 1 1 1 0 0 0 0 0 2 5 8 12 17 20

GEFSSE_con_probscp_096.txt.gz
Probability
1 2 2 1 0 0 0 0 0 0 0 0 0 0 0 0 0 0 0 0 0 0 0 0 0 0 0 0 0 0 0 0 0 0 0 0 0 0 0 0 0 0 0
2 3 3 1 1 1 0 0 0 0 0 0 0 0 0 0 0 0 0 0 0 0 0 0 0 0 0 0 0 0 0 0 0 0 0 0 0 0 0 0 0 0 0
2 3 3 3 2 2 1 0 0 0 0 0 0 0 0 0 0 0 0 0 0 0 0 0 0 0 0 0 0 0 0 0 0 0 0 0 0 0 0 0 0 0 0
4 3 3 3 3 3 2 1 0 0 0 0 0 0 0 0 0 0 0 0 0 0 0 0 0 0 0 0 0 0 0 0 0 0 0 0 0 0 0 0 0 0 0
7 6 6 6 5 3 3 1 0 0 0 0 0 0 0 0 0 0 0 0 0 0 0 0 0 0 0 0 0 0 0 0 0 0 0 0 0 0 0 0 0 0 0
14 11 11 12 9 6 4 2 1 0 0 0 0 0 0 0 0 0 0 0 0 0 0 0 0 0 0 0 0 0 0 0 0 0 0 0 0 0 0 0 0 0 0
23 17 14 15 13 9 5 3 2 1 0 0 0 0 0 0 0 0 0 0 0 0 0 0 0 0 0 0 0 0 0 0 0 0 0 0 0 0 0 0 0 0 0
28 22 16 14 13 10 5 3 2 2 1 0 0 0 0 0 0 0 0 0 0 0 0 0 0 0 0 0 0 0 0 0 0 0 0 0 0 0 0 0 0 0 0
26 22 16 12 9 6 3 1 1 1 1 0 0 0 0 0 0 0 0 0 0 0 0 0 0 0 0 0 0 0 0 0 0 0 0 0 0 0 0 0 0 0 0
19 17 14 9 4 2 1 0 0 1 0 0 0 0 0 0 0 1 1 0 0 0 0 1 0 0 0 0 0 0 0 0 0 0 0 0 0 0 0 0 0 0 0
10 9 8 5 2 0 0 0 0 1 0 0 0 0 0 0 1 3 3 2 0 0 1 1 0 0 0 0 0 0 0 0 0 0 0 1 1 1 0 0 0 0 0
5 4 3 1 0 0 0 0 0 0 0 0 1 0 0 0 0 2 4 3 1 0 1 0 0 0 0 0 0 0 0 0 0 0 0 1 2 2 1 0 1 1 1
6 4 1 0 0 0 0 0 0 1 1 0 0 0 0 0 0 1 3 3 1 1 1 1 0 0 0 0 0 0 0 0 0 0 1 2 4 5 3 1 1 2 2
11 7 3 2 2 2 2 1 0 1 1 1 1 1 1 1 1 1 2 3 3 3 2 1 1 0 0 0 0 0 0 1 1 1 2 4 7 9 7 3 1 2 3
16 11 6 6 8 7 4 2 1 1 1 1 2 2 2 2 1 2 3 4 4 4 2 1 1 0 0 0 0 0 0 1 2 3 3 5 7 9 8 5 2 2 3
21 15 10 10 12 10 8 5 3 3 2 2 2 1 1 1 1 2 2 2 2 2 1 1 0 0 0 0 0 0 0 1 2 3 2 3 4 6 7 7 6 5 4
23 19 13 12 12 11 9 6 4 3 3 2 1 0 0 0 0 1 1 0 0 0 0 0 0 0 0 0 0 0 0 0 1 1 1 1 1 2 5 7 9 9 7
19 17 13 10 9 8 6 3 2 1 1 1 0 0 0 0 0 0 0 0 0 0 0 0 0 0 0 0 0 0 0 0 0 0 0 0 0 0 2 4 7 9 9
12 10 8 6 6 5 3 1 0 0 0 0 0 0 0 0 0 0 0 0 0 0 0 0 0 0 0 0 0 0 0 0 0 0 0 0 0 0 0 2 4 6 6
8 7 6 6 4 2 1 0 0 0 0 0 0 0 0 0 0 0 0 0 0 0 0 0 0 0 0 0 0 0 0 0 0 0 0 0 0 0 1 2 3 4 5
7 7 7 7 3 0 0 0 0 0 0 0 0 0 0 0 0 0 0 0 0 0 0 0 0 0 0 0 0 0 0 0 0 0 0 0 0 0 1 2 3 5 6
6 6 6 5 2 0 0 0 0 0 0 0 0 0 0 0 0 0 0 0 0 0 0 0 0 0 0 0 0 0 0 0 0 0 0 0 0 0 1 1 3 5 6
3 3 4 3 1 0 0 0 0 0 0 0 0 0 0 0 0 0 0 0 0 0 0 0 0 0 0 0 0 0 0 0 0 0 0 0 0 0 0 0 1 3 4
1 2 3 2 1 0 0 0 0 0 0 0 0 0 0 0 0 0 0 0 0 0 0 0 0 0 0 0 0 0 0 0 0 0 0 0 0 0 0 0 0 1 2
1 2 2 1 1 0 0 0 0 0 0 0 0 0 0 0 0 0 0 0 0 0 0 0 0 0 0 0 0 0 0 0 0 0 0 0 0 0 0 0 0 0 1
2 1 1 1 0 0 0 0 0 0 0 0 0 0 0 0 0 0 0 0 0 0 0 0 0 0 0 0 0 0 0 0 0 0 0 0 0 0 0 0 0 0 0

GEFSSE_con_probscp_102.txt.gz
Probability
6 6 6 7 8 9 9 10 9 5 1 0 0 0 0 0 0 0 0 0 0 0 0 0 0 0 0 0 0 0 0 0 0 0 0 0 0 0 0 0 0 0 0
7 7 7 7 8 10 10 9 8 5 2 0 0 0 0 0 0 0 0 0 0 0 0 0 0 0 0 0 0 0 0 0 0 0 0 0 0 0 0 0 0 0 0
10 9 7 7 8 10 11 10 8 6 3 1 0 0 0 0 0 0 0 0 0 0 0 0 0 0 0 0 0 0 0 0 0 0 0 0 0 0 0 0 0 0 0
11 10 9 8 8 10 11 11 8 6 3 1 0 0 0 0 0 0 0 0 0 0 0 0 0 0 0 0 0 0 0 0 0 0 0 0 0 0 0 0 0 0 0
11 10 9 9 8 9 10 10 8 5 3 1 0 0 0 0 0 0 0 0 0 0 0 0 0 0 0 0 0 0 0 0 0 0 0 0 0 0 0 0 0 0 0
10 9 10 10 10 8 8 8 6 4 3 1 0 0 0 0 0 0 0 0 0 0 0 0 0 0 0 0 0 0 0 0 0 0 0 0 0 0 0 0 0 0 0
14 13 13 13 12 9 7 6 4 3 2 1 0 0 0 0 0 0 0 0 0 0 0 0 0 0 0 0 0 0 0 0 0 0 0 0 0 0 0 0 0 0 0
25 23 21 18 15 12 9 6 4 1 1 0 0 0 0 0 0 0 0 0 0 0 0 0 0 0 0 0 0 0 0 0 0 0 0 0 0 0 0 0 0 0 0
36 33 28 23 18 14 11 8 4 1 0 0 0 0 0 0 0 0 0 0 0 0 0 0 0 0 0 0 0 0 0 0 0 0 0 0 0 0 0 0 0 0 0
39 37 33 27 20 15 12 9 4 1 0 0 0 0 0 0 0 0 0 0 0 0 0 0 0 0 0 0 0 1 0 0 0 0 0 0 0 0 0 0 0 0 0
33 33 33 29 22 15 12 9 5 2 0 0 0 0 0 0 0 0 0 0 0 0 0 0 0 0 0 0 0 0 0 0 0 0 0 0 0 0 0 0 0 0 0
30 30 30 28 23 17 13 10 7 4 1 0 0 0 0 0 0 0 0 0 0 1 0 0 0 0 0 0 0 0 0 0 0 0 0 0 0 0 0 0 0 0 0
29 29 27 25 22 17 12 9 8 5 2 1 1 0 0 0 0 0 0 0 0 0 0 0 0 0 0 0 0 0 0 0 0 0 0 0 0 0 0 0 0 0 0
25 25 24 21 17 13 9 8 6 3 1 1 1 0 0 0 0 0 0 0 0 0 0 0 0 0 0 0 1 0 0 0 0 0 0 0 0 0 1 1 1 1 1
20 21 19 15 11 7 6 6 5 2 1 1 1 1 1 0 0 0 0 0 0 0 0 0 0 0 0 0 0 0 0 0 0 0 0 1 1 1 2 3 2 2 3
15 15 13 10 6 3 3 3 3 2 1 1 1 1 1 0 0 0 0 0 0 0 0 0 0 0 0 0 0 0 0 0 0 0 0 0 1 2 3 3 4 3 3
10 9 8 6 2 1 1 1 1 1 0 0 0 1 1 0 0 0 0 0 0 0 0 0 0 0 0 0 0 0 0 0 0 0 0 0 0 1 2 2 3 3 2
7 7 6 4 1 0 0 0 0 0 0 0 0 0 0 0 0 0 0 0 0 0 0 0 0 0 0 0 0 0 0 0 0 0 0 0 0 0 1 1 2 2 1
5 6 6 4 1 0 1 0 0 0 0 0 0 0 0 0 0 0 0 0 0 0 0 0 0 0 0 0 0 0 0 0 0 0 0 0 0 0 0 0 1 2 1
3 4 5 3 1 0 0 0 0 0 0 0 0 0 0 0 0 0 0 0 0 0 0 0 0 0 0 0 0 0 0 0 0 0 0 0 0 0 0 0 1 2 1
3 4 4 2 0 0 0 0 0 0 0 0 0 0 0 0 0 0 0 0 0 0 0 0 0 0 0 0 0 0 0 0 0 0 0 0 0 0 0 0 1 2 2
4 4 3 1 0 0 0 0 0 0 0 0 0 0 0 0 0 0 0 0 0 0 0 0 0 0 0 0 0 0 0 0 0 0 0 0 0 0 0 0 1 1 1
3 3 2 1 0 0 0 0 0 0 0 0 0 0 0 0 0 0 0 0 0 0 0 0 0 0 0 0 0 0 0 0 0 0 0 0 0 0 0 0 0 0 0
2 1 1 0 0 0 0 0 0 0 0 0 0 0 0 0 0 0 0 0 0 0 0 0 0 0 0 0 0 0 0 0 0 0 0 0 0 0 0 0 0 0 0
1 0 0 0 0 0 0 0 0 0 0 0 0 0 0 0 0 0 0 0 0 0 0 0 0 0 0 0 0 0 0 0 0 0 0 0 0 0 0 0 0 0 0
0 0 0 0 0 0 0 0 0 0 0 0 0 0 0 0 0 0 0 0 0 0 0 0 0 0 0 0 0 0 0 0 0 0 0 0 0 0 0 0 0 0 0

GEFSSE_con_probscp_108.txt.gz
Probability
0 1 0 0 0 0 0 0 1 0 0 0 0 0 0 0 0 0 0 0 0 0 0 0 0 0 0 0 0 0 0 0 0 0 0 0 0 0 0 0 0 0 0
1 1 1 1 1 1 1 1 2 1 1 0 0 0 0 0 0 0 0 0 0 0 0 0 0 0 0 0 0 0 0 0 0 0 0 0 0 0 0 0 0 0 0
2 2 2 2 2 2 2 3 3 2 1 0 0 0 0 0 0 0 0 0 0 0 0 0 0 0 0 0 0 0 0 0 0 0 0 0 0 0 0 0 0 0 0
4 3 3 2 2 3 5 4 3 2 1 0 0 0 0 0 0 0 0 0 0 0 0 0 0 0 0 0 0 0 0 0 0 0 0 0 0 0 0 0 0 0 0
5 5 4 3 2 4 6 6 5 3 1 0 0 0 0 0 0 0 0 0 0 0 0 0 0 0 0 0 0 0 0 0 0 0 0 0 0 0 0 0 0 0 0
6 5 4 4 4 5 6 6 6 5 3 1 0 0 0 0 0 0 0 0 0 0 0 0 0 0 0 0 0 0 0 0 0 0 0 0 0 0 0 0 0 0 0
6 5 5 5 5 5 4 5 6 6 3 1 0 0 0 0 0 0 0 0 0 0 0 0 0 0 0 0 0 0 0 0 0 0 0 0 0 0 0 0 0 0 0
5 5 5 4 3 4 3 4 6 6 3 1 0 0 0 0 0 0 0 0 0 0 0 0 0 0 0 0 0 0 0 0 0 0 0 0 0 0 0 0 0 0 0
3 4 4 2 1 2 3 4 5 4 3 2 1 0 0 0 0 0 0 0 0 0 0 0 0 0 0 0 0 0 0 0 0 0 0 0 0 0 0 0 0 0 0
4 4 3 2 1 1 1 2 3 2 1 1 1 0 0 0 0 0 0 0 0 0 0 0 0 0 0 0 0 0 0 0 0 0 0 0 0 0 0 0 0 0 0
9 8 6 6 6 3 1 1 2 1 0 0 0 0 0 0 0 0 0 0 0 0 0 1 1 1 0 0 0 0 0 0 0 0 0 0 0 0 0 0 0 0 0
16 13 12 13 13 9 5 4 3 2 1 0 0 0 0 0 0 0 0 0 0 0 0 1 1 1 0 0 0 0 0 0 0 0 0 0 0 0 0 0 0 0 0
25 20 18 19 18 15 13 11 7 5 4 2 1 0 1 2 2 2 1 1 0 0 0 0 0 0 0 0 0 0 0 0 0 0 0 0 0 0 0 0 0 0 0
32 27 24 25 23 20 19 16 11 8 7 5 3 2 2 3 3 3 2 2 1 0 0 0 0 0 0 0 0 0 0 0 0 0 0 0 0 0 0 0 0 0 0
36 34 33 32 29 26 24 19 13 10 8 7 5 4 3 3 3 3 2 2 1 0 0 0 0 0 0 0 0 0 0 0 0 0 0 0 0 0 0 0 0 0 1
40 40 40 38 34 30 25 20 16 12 10 8 6 5 4 3 3 3 2 2 1 0 0 0 0 0 0 0 0 0 0 0 0 0 0 0 0 0 0 0 0 1 2
42 41 40 38 34 28 22 18 15 12 11 10 8 5 3 3 3 2 2 1 0 0 0 0 0 0 0 0 0 0 0 0 0 0 0 0 0 0 1 1 2 3 2
39 37 34 32 28 24 20 17 14 11 10 10 7 4 3 3 2 2 1 1 0 0 0 0 0 0 0 0 0 0 0 0 0 0 0 0 0 1 2 3 4 4 2
35 34 30 26 24 22 21 19 15 12 9 6 4 3 3 3 2 1 0 0 0 0 0 0 0 0 0 0 0 0 0 0 0 0 0 0 0 1 2 3 4 3 1
29 29 27 24 23 24 23 19 15 12 9 5 3 2 2 2 2 1 0 0 0 1 0 0 0 0 0 0 0 0 0 0 0 0 0 0 0 0 0 2 4 4 3
22 24 25 23 23 24 22 18 15 13 10 6 3 2 1 1 1 0 0 0 0 0 0 0 0 0 0 0 0 0 0 0 0 0 0 0 0 0 0 1 3 5 5
15 17 20 21 21 20 19 17 16 13 10 6 4 2 1 0 0 0 0 0 0 0 0 0 0 0 0 0 0 0 0 0 0 0 0 0 0 0 0 1 2 3 4
9 10 13 16 18 16 14 14 13 11 8 5 3 2 1 0 0 0 0 0 0 0 0 0 0 0 0 0 0 0 0 0 0 0 0 0 0 0 0 0 1 1 1
3 4 7 10 11 10 9 8 7 6 6 5 3 1 0 0 0 0 0 0 0 0 0 0 0 0 0 0 0 0 0 0 0 0 0 0 0 0 0 0 0 0 0
1 1 2 3 5 5 5 5 3 3 5 5 3 1 0 0 0 0 0 0 0 0 0 0 0 0 0 0 0 0 0 0 0 0 0 0 0 0 0 0 0 0 0
0 0 0 1 3 4 4 4 3 3 5 5 2 0 0 0 0 0 0 0 0 0 0 0 0 0 0 0 0 0 0 0 0 0 0 0 0 0 0 0 0 0 0